Weather History for Baraboo, WI

Change the Weather History Date:

Wednesday, February 26, 2014

  Actual Average Record
Temperature  
Mean Temperature 3 °F -  
Max Temperature 14 °F 35 °F 59 °F (1998)
Min Temperature -8 °F 12 °F -21 °F (1963)
Degree Days  
Heating Degree Days 62    
Moisture  
Dew Point -8 °F    
Average Humidity 60    
Maximum Humidity 82    
Minimum Humidity 42    
Precipitation  
Precipitation 0.00 in - - ()
Sea Level Pressure  
Sea Level Pressure 29.89 in    
Wind  
Wind Speed 10 mph (WSW)    
Max Wind Speed 24 mph    
Max Gust Speed 33 mph    
Visibility 9 miles    
Events Snow    
Averages and records for this station are not official NWS values.
T = Trace of Precipitation, MM = Missing Value Source: NWS Daily Summary

Daily Weather History Graph

Daily Weather History Graph

Search for Another Location

Airport:

Trip Planner

Search our weather history database for the weather conditions in past years. The results will help you decide how hot, cold, wet, or windy it might be!

Date:

Astronomy

Feb. 26, 2014 Rise Set
Actual Time 6:40 AM CST 5:44 PM CST
Civil Twilight 6:11 AM CST 6:12 PM CST
Nautical Twilight 5:38 AM CST 6:46 PM CST
Astronomical Twilight 5:05 AM CST 7:19 PM CST
Moon 4:30 AM CST (2/26) 2:55 PM CST (2/26)
Length of Visible Light 12h 01m
Length of Day
11h 03m
Waning Crescent, 10% of the Moon is Illuminated
Feb 26
Waning Crescent
Mar 1
New
Mar 8
First Quarter
Mar 16
Full
Mar 23
Last Quarter

Hourly Weather History & Observations

Time (CST) Temp. Windchill Dew Point Humidity Pressure Visibility Wind Dir Wind Speed Gust Speed Precip Events Conditions
12:15 AM -2.2 °F -12.5 °F -11.0 °F 66% 30.21 in 10.0 mi West 4.6 mph - N/A   Clear
12:35 AM -2.2 °F -12.5 °F -10.8 °F 67% 30.21 in 10.0 mi West 4.6 mph - N/A   Clear
12:55 AM -2.4 °F -12.7 °F -11.2 °F 66% 30.21 in 10.0 mi West 4.6 mph - N/A   Clear
1:15 AM -2.7 °F -11.0 °F -11.2 °F 67% 30.21 in 10.0 mi West 3.5 mph - N/A   Clear
1:35 AM -2.7 °F -14.8 °F -11.2 °F 67% 30.21 in 10.0 mi West 5.8 mph - N/A   Clear
1:55 AM -3.1 °F -13.5 °F -11.2 °F 68% 30.21 in 10.0 mi West 4.6 mph - N/A   Clear
2:15 AM -3.3 °F -15.4 °F -11.7 °F 67% 30.20 in 10.0 mi West 5.8 mph - N/A   Clear
2:35 AM -4.0 °F -14.6 °F -12.1 °F 68% 30.20 in 10.0 mi West 4.6 mph - N/A   Clear
2:55 AM -4.2 °F -14.8 °F -12.1 °F 69% 30.20 in 10.0 mi West 4.6 mph - N/A   Clear
3:15 AM -4.4 °F -16.7 °F -12.1 °F 69% 30.19 in 10.0 mi West 5.8 mph - N/A   Clear
3:35 AM -4.5 °F -15.2 °F -12.5 °F 69% 30.18 in 10.0 mi West 4.6 mph - N/A   Clear
3:55 AM -4.9 °F -15.6 °F -13.0 °F 68% 30.18 in 10.0 mi West 4.6 mph - N/A   Clear
4:15 AM -5.4 °F -16.2 °F -13.5 °F 68% 30.18 in 10.0 mi West 4.6 mph - N/A   Clear
4:35 AM -5.8 °F -14.5 °F -13.7 °F 69% 30.17 in 10.0 mi West 3.5 mph - N/A   Clear
4:55 AM -6.0 °F -14.7 °F -13.9 °F 69% 30.16 in 10.0 mi WSW 3.5 mph - N/A   Clear
5:15 AM -6.2 °F -17.1 °F -14.1 °F 69% 30.16 in 10.0 mi West 4.6 mph - N/A   Clear
5:35 AM -6.5 °F -17.5 °F -14.8 °F 67% 30.16 in 10.0 mi WSW 4.6 mph - N/A   Clear
5:55 AM -6.7 °F -21.0 °F -14.4 °F 69% 30.14 in 10.0 mi West 6.9 mph - N/A   Clear
6:15 AM -7.2 °F -20.1 °F -14.8 °F 70% 30.14 in 10.0 mi West 5.8 mph - N/A   Clear
6:35 AM -7.8 °F -19.0 °F -15.2 °F 70% 30.12 in 10.0 mi West 4.6 mph - N/A   Clear
6:55 AM -8.1 °F -21.2 °F -15.5 °F 70% 30.12 in 10.0 mi West 5.8 mph - N/A   Clear
7:15 AM -7.6 °F -22.1 °F -15.7 °F 68% 30.12 in 10.0 mi West 6.9 mph - N/A   Clear
7:35 AM -6.9 °F -17.9 °F -15.7 °F 66% 30.11 in 10.0 mi West 4.6 mph - N/A   Clear
7:55 AM -6.3 °F -20.6 °F -16.2 °F 62% 30.12 in 10.0 mi West 6.9 mph - N/A   Clear
8:15 AM -5.8 °F -22.4 °F -16.4 °F 60% 30.10 in 10.0 mi WSW 9.2 mph - N/A   Clear
8:35 AM -5.3 °F -21.7 °F -16.6 °F 58% 30.09 in 10.0 mi WSW 9.2 mph - N/A   Clear
8:55 AM -4.2 °F -21.4 °F -15.9 °F 57% 30.07 in 10.0 mi SW 10.4 mph - N/A   Clear
9:15 AM -3.6 °F -18.6 °F -15.7 °F 56% 30.06 in 10.0 mi SW 8.1 mph - N/A   Clear
9:35 AM -2.4 °F -20.1 °F -15.5 °F 54% 30.04 in 10.0 mi WSW 11.5 mph - N/A   Clear
9:55 AM -1.1 °F -18.5 °F -15.0 °F 52% 30.03 in 10.0 mi WSW 11.5 mph - N/A   Clear
10:15 AM -0.4 °F -17.6 °F -14.8 °F 51% 30.01 in 10.0 mi WSW 11.5 mph - N/A   Clear
10:35 AM 0.5 °F -18.7 °F -14.3 °F 50% 29.99 in 10.0 mi WSW 15.0 mph 18.4 mph N/A   Scattered Clouds
10:55 AM 1.9 °F -16.2 °F -13.5 °F 48% 29.98 in 10.0 mi WSW 13.8 mph - N/A   Clear
11:15 AM 3.6 °F -16.0 °F -13.7 °F 45% 29.97 in 10.0 mi WSW 17.3 mph 23.0 mph N/A   Scattered Clouds
11:35 AM 4.5 °F -14.9 °F -11.9 °F 47% 29.95 in 10.0 mi WSW 17.3 mph - N/A   Scattered Clouds
11:55 AM 4.8 °F -14.4 °F -11.7 °F 46% 29.92 in 10.0 mi WSW 17.3 mph 20.7 mph N/A   Clear
12:15 PM 5.0 °F -15.2 °F -12.6 °F 44% 29.90 in 10.0 mi WSW 19.6 mph 23.0 mph N/A   Scattered Clouds
12:30 PM 6.3 °F -13.6 °F -11.6 °F 44% 29.87 in 10.0 mi SW 19.6 mph 26.5 mph N/A   Scattered Clouds
12:55 PM 7.7 °F -10.1 °F -10.7 °F 43% 29.84 in 10.0 mi SW 16.1 mph 27.6 mph N/A   Clear
1:15 PM 8.4 °F -10.8 °F -9.2 °F 45% 29.81 in 10.0 mi SW 19.6 mph 25.3 mph N/A   Clear
1:35 PM 8.8 °F -11.2 °F -9.9 °F 42% 29.79 in 10.0 mi SW 21.9 mph 29.9 mph N/A   Clear
1:55 PM 9.5 °F -9.3 °F -8.9 °F 43% 29.77 in 10.0 mi WSW 19.6 mph 28.8 mph N/A   Clear
2:15 PM 10.0 °F -8.6 °F -8.5 °F 43% 29.77 in 10.0 mi WSW 19.6 mph 28.8 mph N/A   Clear
2:35 PM 10.4 °F -8.2 °F -7.2 °F 45% 29.77 in 10.0 mi WSW 19.6 mph 27.6 mph N/A   Clear
2:55 PM 10.8 °F -7.7 °F -8.3 °F 42% 29.73 in 10.0 mi SW 19.6 mph 32.2 mph N/A   Scattered Clouds
3:15 PM 10.4 °F -9.1 °F -6.7 °F 46% 29.70 in 10.0 mi SW 21.9 mph 28.8 mph N/A   Overcast
3:35 PM 10.2 °F -7.4 °F -6.7 °F 47% 29.69 in 10.0 mi WSW 17.3 mph 32.2 mph N/A   Overcast
3:55 PM 10.4 °F -9.1 °F -6.0 °F 48% 29.67 in 10.0 mi SW 21.9 mph 33.4 mph N/A   Scattered Clouds
4:15 PM 10.2 °F -8.4 °F -5.4 °F 49% 29.65 in 10.0 mi SW 19.6 mph 31.1 mph N/A   Mostly Cloudy
4:35 PM 9.9 °F -8.4 °F -5.3 °F 51% 29.65 in 10.0 mi SW 18.4 mph 27.6 mph N/A   Scattered Clouds
4:55 PM 9.7 °F -8.6 °F -3.8 °F 54% 29.65 in 10.0 mi WSW 18.4 mph 24.2 mph N/A   Mostly Cloudy
5:15 PM 10.2 °F -9.3 °F -2.4 °F 57% 29.64 in 10.0 mi WSW 21.9 mph 32.2 mph N/A   Overcast
5:35 PM 10.2 °F -5.7 °F -1.5 °F 59% 29.64 in 10.0 mi WSW 13.8 mph 23.0 mph N/A   Overcast
5:55 PM 10.2 °F -7.4 °F -0.9 °F 61% 29.63 in 10.0 mi WSW 17.3 mph 25.3 mph N/A   Overcast
6:15 PM 10.0 °F -7.6 °F -0.4 °F 63% 29.62 in 10.0 mi WSW 17.3 mph 27.6 mph N/A   Scattered Clouds
6:35 PM 10.0 °F -5.2 °F 0.7 °F 66% 29.61 in 10.0 mi WSW 12.7 mph - N/A   Clear
6:55 PM 10.2 °F -6.3 °F 1.8 °F 69% 29.61 in 10.0 mi WSW 15.0 mph 21.9 mph N/A   Scattered Clouds
7:10 PM 10.2 °F -3.5 °F 2.3 °F 70% 29.60 in 10.0 mi WSW 10.4 mph 18.4 mph N/A   Mostly Cloudy
7:35 PM 10.6 °F -4.5 °F 3.9 °F 75% 29.59 in 10.0 mi WSW 12.7 mph 18.4 mph N/A   Overcast
7:55 PM 11.8 °F -3.6 °F 5.7 °F 76% 29.57 in 5.0 mi WSW 13.8 mph 20.7 mph N/A   Haze
8:15 PM 12.7 °F -3.6 °F 6.8 °F 77% 29.56 in 5.0 mi SW 16.1 mph 19.6 mph N/A Snow Light Snow
8:35 PM 13.5 °F -1.5 °F 7.7 °F 78% 29.56 in 5.0 mi WSW 13.8 mph 24.2 mph N/A Snow Light Snow
8:55 PM 13.6 °F 0.7 °F 9.0 °F 82% 29.56 in 1.2 mi WSW 10.4 mph 18.4 mph N/A Snow Light Snow
9:15 PM 14.0 °F 0.5 °F 8.8 °F 80% 29.56 in 3.0 mi West 11.5 mph 16.1 mph N/A Snow Light Snow
9:35 PM 14.9 °F -2.3 °F 8.4 °F 76% 29.57 in 7.0 mi West 19.6 mph 25.3 mph N/A   Overcast
9:55 PM 14.9 °F -3.1 °F 8.4 °F 76% 29.58 in 0.8 mi WNW 21.9 mph 32.2 mph N/A Snow Light Snow
10:15 PM 14.0 °F -2.0 °F 7.2 °F 74% 29.59 in 5.0 mi NNW 16.1 mph 25.3 mph N/A Snow Light Snow
10:35 PM 11.8 °F -7.2 °F 1.9 °F 65% 29.61 in 1.8 mi NW 21.9 mph 33.4 mph N/A   Haze
10:55 PM 10.4 °F -9.9 °F -4.7 °F 51% 29.63 in 10.0 mi WNW 24.2 mph 32.2 mph N/A   Scattered Clouds
11:15 PM 9.1 °F -11.2 °F -6.2 °F 50% 29.64 in 10.0 mi NW 23.0 mph 31.1 mph N/A   Clear
11:35 PM 8.2 °F -9.4 °F -7.6 °F 49% 29.65 in 10.0 mi WNW 16.1 mph 26.5 mph N/A   Scattered Clouds
11:55 PM 7.7 °F -9.5 °F -9.4 °F 46% 29.67 in 10.0 mi NW 15.0 mph 28.8 mph N/A   Scattered Clouds